| time (UTC) | temp F | wind direction | speed knots | gust knots | rain 1hr in | rain 24hr in | rain mn in | humidity % | barometer mb |
| 20260510045005 | 65 | 78 | 7.0 | 14.8 | 0.18 | 0.19 | 0.19 | 82 | 1012.3 |
| 20260510044505 | 65 | 87 | 7.8 | 14.8 | 0.18 | 0.19 | 0.19 | 81 | 1011.6 |
| 20260510044005 | 66 | 78 | 5.2 | 13.0 | 0.17 | 0.18 | 0.18 | 80 | 1011.1 |
| 20260510043505 | 66 | 52 | 4.3 | 10.4 | 0.17 | 0.18 | 0.18 | 78 | 1012.3 |
| 20260510043005 | 67 | 48 | 7.0 | 13.9 | 0.17 | 0.18 | 0.18 | 77 | 1012.8 |
| 20260510042505 | 68 | 41 | 7.8 | 13.9 | 0.16 | 0.17 | 0.17 | 76 | 1013.0 |
| 20260510042026 | 68 | 27 | 8.7 | 13.9 | 0.14 | 0.15 | 0.16 | 73 | 1013.4 |
| 20260510041526 | 70 | 350 | 9.6 | 13.9 | 0.12 | 0.13 | 0.13 | 71 | 1013.9 |
| 20260510041005 | 71 | 328 | 8.7 | 14.8 | 0.04 | 0.05 | 0.05 | 67 | 1014.7 |
| 20260510040526 | 72 | 321 | 8.7 | 15.6 | 0.02 | 0.03 | 0.03 | 64 | 1014.4 |
| 20260510040026 | 73 | 309 | 9.6 | 20.0 | 0.01 | 0.02 | 0.02 | 63 | 1013.5 |
| 20260510035505 | 74 | 313 | 7.0 | 20.0 | 0.00 | 0.01 | 0.01 | 59 | 1013.8 |
| 20260510035005 | 74 | 355 | 5.2 | 10.4 | 0.00 | 0.01 | 0.01 | 57 | 1012.6 |
| 20260510034505 | 74 | 27 | 4.3 | 10.4 | 0.00 | 0.01 | 0.01 | 56 | 1011.9 |
| 20260510034026 | 75 | 58 | 2.6 | 8.7 | 0.00 | 0.01 | 0.01 | 54 | 1010.9 |
| 20260510033505 | 75 | 88 | 4.3 | 11.3 | 0.00 | 0.01 | 0.01 | 53 | 1010.3 |
| 20260510033005 | 75 | 99 | 7.0 | 13.9 | 0.00 | 0.01 | 0.01 | 53 | 1009.6 |
| 20260510032505 | 75 | 102 | 7.8 | 14.8 | 0.00 | 0.01 | 0.01 | 53 | 1008.8 |
| 20260510032005 | 75 | 106 | 7.8 | 14.8 | 0.00 | 0.01 | 0.01 | 53 | 1008.4 |
| 20260510031505 | 75 | 107 | 7.0 | 12.2 | 0.00 | 0.01 | 0.01 | 53 | 1008.3 |
| 20260510031005 | 75 | 106 | 7.0 | 12.2 | 0.00 | 0.01 | 0.01 | 53 | 1008.2 |
| 20260510030505 | 76 | 108 | 7.8 | 12.2 | 0.00 | 0.01 | 0.01 | 53 | 1008.0 |
| 20260510030005 | 76 | 110 | 7.0 | 17.4 | 0.00 | 0.01 | 0.01 | 53 | 1008.0 |
| 20260510025505 | 76 | 113 | 7.0 | 17.4 | 0.00 | 0.01 | 0.01 | 53 | 1008.2 |
| 20260510025005 | 76 | 115 | 6.1 | 11.3 | 0.00 | 0.01 | 0.01 | 53 | 1008.4 |
| 20260510024505 | 76 | 117 | 5.2 | 11.3 | 0.00 | 0.01 | 0.01 | 52 | 1008.6 |
| 20260510024005 | 76 | 116 | 5.2 | 10.4 | 0.00 | 0.01 | 0.01 | 52 | 1008.6 |
| 20260510023505 | 76 | 115 | 5.2 | 10.4 | 0.00 | 0.01 | 0.01 | 52 | 1008.5 |
| 20260510023005 | 76 | 118 | 4.3 | 8.7 | 0.00 | 0.01 | 0.01 | 52 | 1008.5 |
| 20260510022505 | 76 | 117 | 3.5 | 8.7 | 0.00 | 0.01 | 0.01 | 51 | 1008.3 |
| 20260510022005 | 76 | 119 | 3.5 | 8.7 | 0.00 | 0.01 | 0.01 | 51 | 1008.4 |
| 20260510021505 | 77 | 120 | 3.5 | 8.7 | 0.00 | 0.01 | 0.01 | 51 | 1008.4 |
| 20260510021005 | 77 | 119 | 3.5 | 7.8 | 0.00 | 0.01 | 0.01 | 50 | 1008.0 |
| 20260510020505 | 77 | 119 | 2.6 | 8.7 | 0.00 | 0.01 | 0.01 | 50 | 1007.9 |
| 20260510020005 | 77 | 120 | 2.6 | 8.7 | 0.00 | 0.01 | 0.01 | 49 | 1007.7 |
| 20260510015526 | 77 | 127 | 2.6 | 7.8 | 0.00 | 0.01 | 0.01 | 49 | 1007.3 |
| 20260510015005 | 77 | 139 | 2.6 | 7.8 | 0.00 | 0.01 | 0.01 | 49 | 1006.9 |
| 20260510014505 | 78 | 147 | 2.6 | 7.0 | 0.00 | 0.01 | 0.01 | 48 | 1006.9 |
| 20260510014005 | 78 | 152 | 1.7 | 7.0 | 0.00 | 0.01 | 0.01 | 47 | 1006.8 |
| 20260510013526 | 78 | 149 | 1.7 | 5.2 | 0.00 | 0.01 | 0.01 | 47 | 1006.7 |
| 20260510013005 | 78 | 127 | 1.7 | 6.1 | 0.00 | 0.01 | 0.01 | 46 | 1006.8 |
| 20260510012505 | 78 | 124 | 1.7 | 6.1 | 0.00 | 0.01 | 0.01 | 46 | 1006.8 |
| 20260510012026 | 79 | 142 | 1.7 | 6.1 | 0.00 | 0.01 | 0.01 | 45 | 1006.9 |
| 20260510011505 | 79 | 155 | 1.7 | 6.1 | 0.00 | 0.01 | 0.01 | 45 | 1007.0 |
| 20260510011026 | 79 | 149 | 1.7 | 5.2 | 0.00 | 0.01 | 0.01 | 45 | 1006.8 |
| 20260510010505 | 80 | 150 | 1.7 | 5.2 | 0.00 | 0.01 | 0.01 | 45 | 1006.7 |
| 20260510010005 | 80 | 149 | 1.7 | 7.0 | 0.00 | 0.01 | 0.01 | 44 | 1006.8 |
| 20260510005505 | 80 | 149 | 2.6 | 9.6 | 0.00 | 0.01 | 0.01 | 44 | 1006.9 |
| 20260510005005 | 80 | 152 | 2.6 | 9.6 | 0.00 | 0.01 | 0.01 | 44 | 1006.9 |
| 20260510004505 | 81 | 157 | 1.7 | 7.0 | 0.00 | 0.01 | 0.01 | 44 | 1007.0 |
| 20260510004005 | 81 | 157 | 2.6 | 10.4 | 0.00 | 0.01 | 0.01 | 44 | 1007.2 |
| 20260510003526 | 81 | 141 | 1.7 | 10.4 | 0.00 | 0.01 | 0.01 | 44 | 1007.2 |
| 20260510003005 | 82 | 120 | 3.5 | 9.6 | 0.00 | 0.01 | 0.01 | 44 | 1007.0 |
| 20260510002504 | 82 | 119 | 4.3 | 9.6 | 0.00 | 0.01 | 0.01 | 43 | 1006.8 |
| 20260510002005 | 83 | 123 | 3.5 | 10.4 | 0.00 | 0.01 | 0.01 | 44 | 1006.9 |
| 20260510001505 | 83 | 133 | 3.5 | 10.4 | 0.00 | 0.01 | 0.01 | 43 | 1006.9 |
| 20260510001004 | 84 | 153 | 4.3 | 10.4 | 0.00 | 0.01 | 0.01 | 42 | 1007.0 |
| 20260510000504 | 84 | 156 | 4.3 | 10.4 | 0.00 | 0.01 | 0.01 | 40 | 1007.1 |
| 20260510000005 | 85 | 149 | 3.5 | 9.6 | 0.00 | 0.01 | 0.01 | 39 | 1007.0 |
| 20260509235505 | 86 | 153 | 3.5 | 9.6 | 0.00 | 0.01 | 0.01 | 38 | 1006.9 |
| 20260509235005 | 87 | 153 | 4.3 | 14.8 | 0.00 | 0.01 | 0.01 | 36 | 1006.9 |
| 20260509234505 | 88 | 152 | 5.2 | 14.8 | 0.00 | 0.01 | 0.01 | 35 | 1007.0 |
| 20260509234005 | 89 | 138 | 5.2 | 12.2 | 0.00 | 0.01 | 0.01 | 33 | 1007.1 |
| 20260509233525 | 90 | 133 | 5.2 | 11.3 | 0.00 | 0.01 | 0.01 | 33 | 1007.2 |
| 20260509233004 | 90 | 155 | 5.2 | 13.0 | 0.00 | 0.01 | 0.01 | 34 | 1007.0 |
| 20260509232526 | 90 | 159 | 5.2 | 13.0 | 0.00 | 0.01 | 0.01 | 33 | 1007.0 |
| 20260509232004 | 90 | 156 | 6.1 | 13.9 | 0.00 | 0.01 | 0.01 | 34 | 1007.2 |
| 20260509231504 | 90 | 148 | 6.1 | 13.9 | 0.00 | 0.01 | 0.01 | 35 | 1007.2 |
| 20260509231005 | 90 | 147 | 5.2 | 10.4 | 0.00 | 0.01 | 0.01 | 35 | 1007.3 |
| 20260509230505 | 90 | 153 | 5.2 | 10.4 | 0.00 | 0.01 | 0.01 | 35 | 1007.2 |
| 20260509230005 | 90 | 134 | 5.2 | 10.4 | 0.00 | 0.01 | 0.01 | 35 | 1007.3 |
| 20260509225505 | 91 | 128 | 5.2 | 11.3 | 0.00 | 0.01 | 0.01 | 33 | 1007.3 |
| 20260509225026 | 91 | 136 | 4.3 | 11.3 | 0.00 | 0.07 | 0.01 | 33 | 1007.3 |
| 20260509224505 | 92 | 128 | 4.3 | 12.2 | 0.00 | 0.32 | 0.01 | 33 | 1007.4 |
| 20260509224025 | 92 | 116 | 5.2 | 12.2 | 0.00 | 0.32 | 0.01 | 33 | 1007.5 |
| 20260509223526 | 92 | 113 | 5.2 | 10.4 | 0.00 | 0.32 | 0.01 | 33 | 1007.5 |
| 20260509223005 | 92 | 118 | 4.3 | 10.4 | 0.00 | 0.32 | 0.01 | 33 | 1007.7 |
| 20260509222504 | 92 | 138 | 3.5 | 9.6 | 0.00 | 0.32 | 0.01 | 33 | 1007.8 |
| 20260509222005 | 92 | 144 | 4.3 | 9.6 | 0.00 | 0.32 | 0.01 | 33 | 1007.8 |
| 20260509221505 | 92 | 127 | 5.2 | 11.3 | 0.00 | 0.32 | 0.01 | 32 | 1007.8 |
| 20260509221004 | 93 | 114 | 3.5 | 11.3 | 0.00 | 0.32 | 0.01 | 32 | 1008.0 |
| 20260509220505 | 93 | 128 | 3.5 | 8.7 | 0.00 | 0.32 | 0.01 | 33 | 1007.9 |
| 20260509220004 | 93 | 141 | 3.5 | 7.0 | 0.00 | 0.32 | 0.01 | 33 | 1008.0 |
| 20260509215504 | 92 | 125 | 4.3 | 10.4 | 0.00 | 0.32 | 0.01 | 34 | 1008.0 |
| 20260509215004 | 92 | 103 | 6.1 | 10.4 | 0.00 | 0.32 | 0.01 | 34 | 1008.0 |
| 20260509214504 | 92 | 97 | 7.0 | 12.2 | 0.00 | 0.32 | 0.01 | 34 | 1008.0 |
| 20260509214004 | 92 | 102 | 6.1 | 12.2 | 0.00 | 0.32 | 0.01 | 35 | 1008.0 |
| 20260509213504 | 92 | 126 | 5.2 | 10.4 | 0.00 | 0.32 | 0.01 | 33 | 1008.0 |
| 20260509213026 | 92 | 147 | 3.5 | 11.3 | 0.00 | 0.32 | 0.01 | 35 | 1008.0 |
| 20260509212505 | 92 | 148 | 3.5 | 12.2 | 0.00 | 0.32 | 0.01 | 34 | 1008.1 |
| 20260509212005 | 92 | 146 | 3.5 | 12.2 | 0.00 | 0.32 | 0.01 | 33 | 1008.2 |
| 20260509211505 | 92 | 127 | 4.3 | 9.6 | 0.00 | 0.32 | 0.01 | 33 | 1008.3 |
| 20260509211004 | 92 | 132 | 4.3 | 9.6 | 0.00 | 0.32 | 0.01 | 34 | 1008.3 |
| 20260509210526 | 92 | 148 | 2.6 | 7.8 | 0.00 | 0.32 | 0.01 | 36 | 1008.3 |
| 20260509210026 | 92 | 110 | 4.3 | 12.2 | 0.00 | 0.32 | 0.01 | 36 | 1008.4 |
| 20260509205526 | 93 | 96 | 5.2 | 12.2 | 0.00 | 0.32 | 0.01 | 34 | 1008.4 |
| 20260509205005 | 93 | 99 | 4.3 | 8.7 | 0.00 | 0.32 | 0.01 | 33 | 1008.5 |
| 20260509204505 | 93 | 110 | 4.3 | 9.6 | 0.00 | 0.32 | 0.01 | 34 | 1008.5 |
| 20260509204005 | 92 | 94 | 6.1 | 12.2 | 0.00 | 0.32 | 0.01 | 33 | 1008.6 |
| 20260509203505 | 92 | 87 | 6.1 | 12.2 | 0.00 | 0.32 | 0.01 | 34 | 1008.6 |
| 20260509203005 | 92 | 101 | 4.3 | 12.2 | 0.00 | 0.32 | 0.01 | 34 | 1008.7 |
| 20260509202505 | 92 | 121 | 1.7 | 7.8 | 0.00 | 0.32 | 0.01 | 33 | 1008.7 |
| 20260509202005 | 92 | 121 | 2.6 | 8.7 | 0.00 | 0.32 | 0.01 | 31 | 1008.8 |
| 20260509201505 | 92 | 136 | 3.5 | 8.7 | 0.00 | 0.32 | 0.01 | 32 | 1008.9 |
| 20260509201005 | 92 | 177 | 1.7 | 6.1 | 0.00 | 0.32 | 0.01 | 35 | 1008.8 |
| 20260509200505 | 92 | 123 | 1.7 | 8.7 | 0.00 | 0.32 | 0.01 | 33 | 1008.9 |
| 20260509200005 | 92 | 85 | 1.7 | 8.7 | 0.00 | 0.32 | 0.01 | 31 | 1009.1 |
| 20260509195505 | 92 | 103 | 2.6 | 8.7 | 0.00 | 0.32 | 0.01 | 34 | 1009.2 |
| 20260509195005 | 92 | 101 | 3.5 | 8.7 | 0.00 | 0.32 | 0.01 | 34 | 1009.2 |
| 20260509194505 | 92 | 97 | 4.3 | 8.7 | 0.00 | 0.32 | 0.01 | 36 | 1009.2 |
| 20260509194005 | 92 | 99 | 4.3 | 12.2 | 0.00 | 0.32 | 0.01 | 34 | 1009.3 |
| 20260509193526 | 91 | 94 | 4.3 | 12.2 | 0.00 | 0.32 | 0.01 | 33 | 1009.4 |
| 20260509193005 | 91 | 90 | 1.7 | 7.8 | 0.00 | 0.32 | 0.01 | 35 | 1009.4 |
| 20260509192505 | 90 | 76 | 1.7 | 7.0 | 0.00 | 0.32 | 0.01 | 37 | 1009.4 |
| 20260509192026 | 90 | 71 | 2.6 | 9.6 | 0.00 | 0.32 | 0.01 | 34 | 1009.4 |
| 20260509191504 | 90 | 82 | 5.2 | 11.3 | 0.00 | 0.32 | 0.01 | 37 | 1009.6 |
| 20260509191004 | 90 | 84 | 6.1 | 11.3 | 0.00 | 0.32 | 0.01 | 36 | 1009.6 |
| 20260509190504 | 90 | 84 | 5.2 | 9.6 | 0.00 | 0.32 | 0.01 | 36 | 1009.7 |
| 20260509190004 | 89 | 97 | 5.2 | 9.6 | 0.00 | 0.32 | 0.01 | 36 | 1009.7 |
| 20260509185525 | 89 | 136 | 4.3 | 9.6 | 0.00 | 0.32 | 0.01 | 35 | 1009.8 |
| 20260509185025 | 89 | 145 | 3.5 | 7.8 | 0.00 | 0.32 | 0.01 | 34 | 1009.9 |
| 20260509184504 | 89 | 119 | 0.9 | 6.1 | 0.00 | 0.32 | 0.01 | 37 | 1009.9 |
| 20260509184004 | 88 | 124 | 0.0 | 2.6 | 0.00 | 0.32 | 0.01 | 35 | 1010.0 |
| 20260509183504 | 88 | 161 | 0.9 | 5.2 | 0.00 | 0.32 | 0.01 | 40 | 1010.0 |
| 20260509183004 | 88 | 175 | 1.7 | 7.8 | 0.00 | 0.32 | 0.01 | 40 | 1010.1 |
| 20260509182504 | 87 | 169 | 2.6 | 7.8 | 0.00 | 0.32 | 0.01 | 36 | 1010.1 |
| 20260509182004 | 87 | 166 | 3.5 | 7.8 | 0.00 | 0.32 | 0.01 | 37 | 1010.2 |
| 20260509181504 | 87 | 177 | 3.5 | 9.6 | 0.00 | 0.32 | 0.01 | 39 | 1010.2 |
| 20260509181025 | 86 | 188 | 2.6 | 9.6 | 0.00 | 0.32 | 0.01 | 38 | 1010.3 |
| 20260509180504 | 86 | 207 | 2.6 | 8.7 | 0.00 | 0.32 | 0.01 | 40 | 1010.4 |
| 20260509180025 | 86 | 191 | 2.6 | 8.7 | 0.00 | 0.32 | 0.01 | 42 | 1010.4 |
| 20260509175504 | 86 | 164 | 3.5 | 10.4 | 0.00 | 0.32 | 0.01 | 44 | 1010.6 |
| 20260509175004 | 86 | 166 | 4.3 | 10.4 | 0.00 | 0.32 | 0.01 | 42 | 1010.7 |
| 20260509174504 | 86 | 169 | 2.6 | 8.7 | 0.00 | 0.32 | 0.01 | 44 | 1010.7 |
| 20260509174004 | 85 | 228 | 1.7 | 7.8 | 0.00 | 0.32 | 0.01 | 42 | 1010.8 |
| 20260509173504 | 85 | 245 | 2.6 | 7.8 | 0.00 | 0.32 | 0.01 | 41 | 1010.8 |
| 20260509173004 | 85 | 237 | 2.6 | 7.0 | 0.00 | 0.32 | 0.01 | 40 | 1010.9 |
| 20260509172504 | 84 | 173 | 0.9 | 5.2 | 0.00 | 0.32 | 0.01 | 44 | 1010.9 |
| 20260509172004 | 84 | 103 | 0.9 | 8.7 | 0.00 | 0.32 | 0.01 | 45 | 1011.1 |
| 20260509171505 | 84 | 97 | 2.6 | 8.7 | 0.00 | 0.32 | 0.01 | 47 | 1011.0 |
| 20260509171004 | 83 | 125 | 2.6 | 7.0 | 0.00 | 0.32 | 0.01 | 52 | 1011.1 |
| 20260509170504 | 83 | 176 | 2.6 | 7.8 | 0.00 | 0.32 | 0.01 | 52 | 1011.1 |
| 20260509170004 | 82 | 163 | 2.6 | 7.8 | 0.00 | 0.32 | 0.01 | 55 | 1011.2 |
| 20260509165526 | 82 | 137 | 2.6 | 7.0 | 0.00 | 0.32 | 0.01 | 58 | 1011.3 |
| 20260509165004 | 81 | 120 | 3.5 | 7.8 | 0.00 | 0.32 | 0.01 | 55 | 1011.2 |
| 20260509164505 | 81 | 116 | 2.6 | 7.8 | 0.00 | 0.32 | 0.01 | 55 | 1011.2 |
| 20260509164004 | 80 | 95 | 2.6 | 7.8 | 0.00 | 0.32 | 0.01 | 59 | 1011.1 |
| 20260509163504 | 80 | 97 | 4.3 | 8.7 | 0.00 | 0.32 | 0.01 | 56 | 1011.4 |
| 20260509163025 | 79 | 119 | 4.3 | 8.7 | 0.00 | 0.32 | 0.01 | 57 | 1011.4 |
| 20260509162505 | 78 | 141 | 2.6 | 7.8 | 0.00 | 0.32 | 0.01 | 60 | 1011.5 |
| 20260509162026 | 78 | 127 | 1.7 | 7.8 | 0.00 | 0.32 | 0.01 | 62 | 1011.4 |
| 20260509161505 | 77 | 118 | 1.7 | 7.0 | 0.00 | 0.32 | 0.01 | 66 | 1011.5 |
| 20260509161005 | 76 | 138 | 1.7 | 7.8 | 0.00 | 0.32 | 0.01 | 65 | 1011.6 |
| 20260509160505 | 75 | 128 | 2.6 | 7.8 | 0.00 | 0.32 | 0.01 | 68 | 1011.6 |
| 20260509160026 | 75 | 117 | 2.6 | 7.8 | 0.00 | 0.32 | 0.01 | 69 | 1011.5 |
| 20260509155504 | 74 | 124 | 1.7 | 7.8 | 0.00 | 0.32 | 0.01 | 70 | 1011.4 |
| 20260509155005 | 74 | 125 | 1.7 | 7.8 | 0.00 | 0.32 | 0.01 | 69 | 1011.3 |
| 20260509154505 | 73 | 129 | 0.9 | 6.1 | 0.00 | 0.32 | 0.01 | 72 | 1011.3 |
| 20260509154005 | 73 | 163 | 0.9 | 4.3 | 0.00 | 0.32 | 0.01 | 71 | 1011.3 |
| 20260509153504 | 72 | 171 | 0.9 | 4.3 | 0.00 | 0.32 | 0.01 | 73 | 1011.5 |
| 20260509153004 | 72 | 163 | 0.9 | 3.5 | 0.00 | 0.32 | 0.01 | 73 | 1011.2 |
| 20260509152504 | 72 | 126 | 0.9 | 3.5 | 0.00 | 0.32 | 0.01 | 74 | 1011.3 |
| 20260509152004 | 72 | 112 | 1.7 | 3.5 | 0.00 | 0.32 | 0.01 | 76 | 1011.1 |
| 20260509151504 | 72 | 111 | 0.9 | 2.6 | 0.00 | 0.32 | 0.01 | 76 | 1011.2 |
| 20260509151004 | 71 | 125 | 0.0 | 2.6 | 0.00 | 0.32 | 0.01 | 78 | 1011.3 |
| 20260509150504 | 71 | 128 | 0.0 | 1.7 | 0.00 | 0.32 | 0.01 | 82 | 1011.3 |
| 20260509150004 | 70 | 112 | 0.9 | 3.5 | 0.00 | 0.32 | 0.01 | 85 | 1011.2 |
| 20260509145504 | 69 | 105 | 1.7 | 6.1 | 0.00 | 0.32 | 0.01 | 89 | 1011.3 |
| 20260509145004 | 68 | 107 | 2.6 | 6.1 | 0.00 | 0.32 | 0.01 | 90 | 1011.1 |
| 20260509144504 | 68 | 109 | 1.7 | 6.1 | 0.00 | 0.32 | 0.01 | 91 | 1011.0 |
| 20260509144004 | 67 | 100 | 1.7 | 5.2 | 0.00 | 0.32 | 0.01 | 92 | 1011.0 |
| 20260509143504 | 66 | 72 | 0.9 | 3.5 | 0.00 | 0.32 | 0.01 | 93 | 1011.1 |
| 20260509143004 | 66 | 47 | 0.0 | 2.6 | 0.00 | 0.32 | 0.01 | 93 | 1011.2 |
| 20260509142504 | 65 | 0 | 0.0 | 0.0 | 0.00 | 0.32 | 0.01 | 93 | 1011.2 |
| 20260509142004 | 65 | 0 | 0.0 | 0.0 | 0.00 | 0.32 | 0.01 | 93 | 1011.3 |
| 20260509141504 | 64 | 0 | 0.0 | 0.0 | 0.00 | 0.32 | 0.01 | 94 | 1011.4 |
| 20260509141004 | 64 | 0 | 0.0 | 0.0 | 0.00 | 0.32 | 0.01 | 94 | 1011.4 |
| 20260509140525 | 63 | 0 | 0.0 | 0.0 | 0.00 | 0.32 | 0.01 | 93 | 1011.3 |
| 20260509140005 | 63 | 0 | 0.0 | 0.0 | 0.00 | 0.32 | 0.01 | 94 | 1011.3 |
| 20260509135504 | 62 | 0 | 0.0 | 0.0 | 0.00 | 0.32 | 0.01 | 94 | 1011.2 |
| 20260509135004 | 62 | 0 | 0.0 | 0.0 | 0.00 | 0.32 | 0.01 | 94 | 1011.2 |
| 20260509134504 | 61 | 0 | 0.0 | 0.0 | 0.00 | 0.32 | 0.01 | 94 | 1011.1 |
| 20260509134025 | 60 | 0 | 0.0 | 0.0 | 0.00 | 0.32 | 0.01 | 93 | 1011.1 |
| 20260509133525 | 60 | 0 | 0.0 | 0.0 | 0.00 | 0.32 | 0.01 | 93 | 1011.0 |
| 20260509133004 | 60 | 0 | 0.0 | 0.0 | 0.00 | 0.32 | 0.01 | 94 | 1010.9 |
| 20260509132504 | 59 | 0 | 0.0 | 0.0 | 0.00 | 0.32 | 0.01 | 94 | 1011.0 |
| 20260509132004 | 58 | 0 | 0.0 | 0.0 | 0.00 | 0.32 | 0.01 | 93 | 1011.0 |
| 20260509131525 | 57 | 0 | 0.0 | 0.0 | 0.00 | 0.32 | 0.01 | 93 | 1010.8 |
| 20260509131025 | 57 | 0 | 0.0 | 0.0 | 0.00 | 0.32 | 0.01 | 92 | 1010.8 |
| 20260509130525 | 57 | 0 | 0.0 | 0.0 | 0.00 | 0.32 | 0.01 | 92 | 1010.7 |
| 20260509130004 | 57 | 0 | 0.0 | 0.0 | 0.00 | 0.32 | 0.01 | 92 | 1010.6 |
| 20260509125504 | 56 | 0 | 0.0 | 0.0 | 0.00 | 0.32 | 0.01 | 92 | 1010.6 |
| 20260509125004 | 56 | 0 | 0.0 | 0.0 | 0.00 | 0.32 | 0.01 | 92 | 1010.6 |
| 20260509124504 | 56 | 158 | 0.0 | 1.7 | 0.00 | 0.32 | 0.01 | 92 | 1010.5 |
| 20260509124004 | 56 | 157 | 0.0 | 1.7 | 0.00 | 0.32 | 0.01 | 92 | 1010.4 |
| 20260509123504 | 56 | 153 | 0.0 | 1.7 | 0.00 | 0.32 | 0.01 | 92 | 1010.4 |
| 20260509123004 | 56 | 0 | 0.0 | 0.0 | 0.00 | 0.32 | 0.01 | 91 | 1010.4 |
| 20260509122504 | 56 | 0 | 0.0 | 0.0 | 0.00 | 0.32 | 0.01 | 91 | 1010.2 |
| 20260509122025 | 55 | 0 | 0.0 | 0.0 | 0.00 | 0.32 | 0.01 | 91 | 1010.2 |
| 20260509121504 | 55 | 0 | 0.0 | 0.0 | 0.00 | 0.32 | 0.01 | 91 | 1010.2 |
| 20260509121004 | 55 | 0 | 0.0 | 0.0 | 0.00 | 0.32 | 0.01 | 91 | 1010.2 |
| 20260509120504 | 55 | 0 | 0.0 | 0.0 | 0.00 | 0.32 | 0.01 | 91 | 1010.1 |
| 20260509120004 | 55 | 0 | 0.0 | 0.0 | 0.00 | 0.32 | 0.01 | 91 | 1010.1 |
| 20260509115504 | 55 | 0 | 0.0 | 0.0 | 0.00 | 0.32 | 0.01 | 90 | 1010.0 |
| 20260509115025 | 55 | 0 | 0.0 | 0.0 | 0.00 | 0.32 | 0.01 | 90 | 1010.0 |
| 20260509114504 | 55 | 0 | 0.0 | 0.0 | 0.00 | 0.32 | 0.01 | 90 | 1010.0 |
| 20260509114004 | 55 | 0 | 0.0 | 0.0 | 0.00 | 0.32 | 0.01 | 90 | 1010.0 |
| 20260509113504 | 55 | 0 | 0.0 | 0.0 | 0.00 | 0.32 | 0.01 | 90 | 1009.9 |
| 20260509113004 | 55 | 0 | 0.0 | 0.0 | 0.00 | 0.32 | 0.01 | 90 | 1009.8 |
| 20260509112504 | 55 | 0 | 0.0 | 0.0 | 0.00 | 0.32 | 0.01 | 90 | 1009.7 |
| 20260509112005 | 55 | 0 | 0.0 | 0.0 | 0.00 | 0.32 | 0.01 | 90 | 1009.7 |
| 20260509111505 | 55 | 0 | 0.0 | 0.0 | 0.00 | 0.32 | 0.01 | 90 | 1009.6 |
| 20260509111004 | 55 | 0 | 0.0 | 0.0 | 0.00 | 0.32 | 0.01 | 89 | 1009.5 |
| 20260509110504 | 55 | 0 | 0.0 | 0.0 | 0.00 | 0.32 | 0.01 | 89 | 1009.5 |
| 20260509110004 | 56 | 0 | 0.0 | 0.0 | 0.00 | 0.32 | 0.01 | 90 | 1009.5 |
| 20260509105503 | 56 | 0 | 0.0 | 0.0 | 0.00 | 0.32 | 0.01 | 90 | 1009.6 |
| 20260509105025 | 56 | 0 | 0.0 | 0.0 | 0.00 | 0.32 | 0.01 | 89 | 1009.6 |
| 20260509104503 | 56 | 0 | 0.0 | 0.0 | 0.00 | 0.32 | 0.01 | 89 | 1009.6 |
| 20260509104004 | 56 | 0 | 0.0 | 0.0 | 0.00 | 0.32 | 0.01 | 89 | 1009.6 |
| 20260509103503 | 56 | 0 | 0.0 | 0.0 | 0.00 | 0.32 | 0.01 | 90 | 1009.6 |
| 20260509103025 | 56 | 0 | 0.0 | 0.0 | 0.00 | 0.32 | 0.01 | 90 | 1009.7 |
| 20260509102504 | 57 | 0 | 0.0 | 0.0 | 0.00 | 0.32 | 0.01 | 90 | 1009.7 |
| 20260509102003 | 57 | 0 | 0.0 | 0.0 | 0.00 | 0.32 | 0.01 | 90 | 1009.7 |
| 20260509101504 | 57 | 0 | 0.0 | 0.0 | 0.00 | 0.32 | 0.01 | 90 | 1009.8 |
| 20260509101004 | 57 | 0 | 0.0 | 0.0 | 0.00 | 0.32 | 0.01 | 90 | 1009.9 |
| 20260509100525 | 57 | 0 | 0.0 | 0.0 | 0.00 | 0.32 | 0.01 | 90 | 1010.0 |
| 20260509100005 | 57 | 0 | 0.0 | 0.0 | 0.00 | 0.32 | 0.01 | 90 | 1010.1 |
| 20260509095504 | 57 | 0 | 0.0 | 0.0 | 0.00 | 0.32 | 0.01 | 90 | 1010.0 |
| 20260509095025 | 57 | 0 | 0.0 | 0.0 | 0.00 | 0.32 | 0.01 | 90 | 1010.2 |
| 20260509094504 | 57 | 0 | 0.0 | 0.0 | 0.00 | 0.32 | 0.01 | 89 | 1010.2 |
| 20260509094025 | 57 | 0 | 0.0 | 0.0 | 0.00 | 0.32 | 0.01 | 89 | 1010.3 |
| 20260509093504 | 58 | 0 | 0.0 | 0.0 | 0.00 | 0.32 | 0.01 | 89 | 1010.3 |
| 20260509093004 | 58 | 0 | 0.0 | 0.0 | 0.00 | 0.32 | 0.01 | 89 | 1010.3 |
| 20260509092525 | 58 | 0 | 0.0 | 0.0 | 0.00 | 0.32 | 0.01 | 89 | 1010.2 |
| 20260509092004 | 58 | 0 | 0.0 | 0.0 | 0.00 | 0.32 | 0.01 | 89 | 1010.2 |
| 20260509091504 | 58 | 0 | 0.0 | 0.0 | 0.00 | 0.32 | 0.01 | 89 | 1010.2 |
| 20260509091004 | 58 | 0 | 0.0 | 0.9 | 0.00 | 0.32 | 0.01 | 89 | 1010.1 |
| 20260509090504 | 58 | 0 | 0.0 | 0.9 | 0.00 | 0.32 | 0.01 | 89 | 1010.2 |
| 20260509090004 | 58 | 0 | 0.0 | 0.0 | 0.00 | 0.32 | 0.01 | 89 | 1010.3 |
| 20260509085504 | 58 | 0 | 0.0 | 0.0 | 0.00 | 0.32 | 0.01 | 88 | 1010.4 |
| 20260509085026 | 58 | 0 | 0.0 | 0.0 | 0.01 | 0.32 | 0.01 | 88 | 1010.4 |
| 20260509084525 | 58 | 0 | 0.0 | 0.0 | 0.01 | 0.32 | 0.01 | 88 | 1010.2 |
| 20260509084004 | 58 | 0 | 0.0 | 0.0 | 0.01 | 0.32 | 0.01 | 88 | 1010.1 |
| 20260509083504 | 58 | 0 | 0.0 | 0.0 | 0.01 | 0.32 | 0.01 | 88 | 1010.1 |
| 20260509083004 | 58 | 0 | 0.0 | 0.0 | 0.01 | 0.32 | 0.01 | 88 | 1010.0 |
| 20260509082504 | 58 | 0 | 0.0 | 0.0 | 0.01 | 0.32 | 0.01 | 88 | 1010.0 |
| 20260509082004 | 58 | 0 | 0.0 | 0.0 | 0.01 | 0.32 | 0.01 | 88 | 1010.0 |
| 20260509081504 | 58 | 0 | 0.0 | 0.0 | 0.01 | 0.32 | 0.01 | 88 | 1010.1 |
| 20260509081025 | 59 | 0 | 0.0 | 0.0 | 0.01 | 0.32 | 0.01 | 88 | 1010.0 |
| 20260509080503 | 59 | 0 | 0.0 | 0.0 | 0.01 | 0.32 | 0.01 | 88 | 1010.1 |
| 20260509080004 | 59 | 0 | 0.0 | 0.0 | 0.01 | 0.32 | 0.01 | 88 | 1010.3 |
| 20260509075503 | 59 | 0 | 0.0 | 0.0 | 0.01 | 0.32 | 0.01 | 88 | 1010.4 |
| 20260509075004 | 59 | 0 | 0.0 | 0.0 | 0.00 | 0.31 | 0.00 | 88 | 1010.5 |
| 20260509074503 | 59 | 0 | 0.0 | 0.0 | 0.00 | 0.31 | 0.00 | 88 | 1010.6 |
| 20260509074004 | 59 | 0 | 0.0 | 0.0 | 0.00 | 0.31 | 0.00 | 88 | 1010.6 |
| 20260509073504 | 60 | 0 | 0.0 | 0.0 | 0.00 | 0.31 | 0.00 | 88 | 1010.7 |
| 20260509073004 | 60 | 0 | 0.0 | 0.0 | 0.00 | 0.31 | 0.00 | 88 | 1010.9 |
| 20260509072504 | 60 | 103 | 0.0 | 1.7 | 0.00 | 0.31 | 0.00 | 88 | 1010.7 |
| 20260509072004 | 60 | 103 | 0.0 | 1.7 | 0.00 | 0.31 | 0.00 | 88 | 1010.7 |
| 20260509071504 | 60 | 113 | 0.0 | 1.7 | 0.00 | 0.31 | 0.00 | 87 | 1010.7 |
| 20260509071003 | 60 | 113 | 0.0 | 1.7 | 0.00 | 0.31 | 0.00 | 88 | 1010.8 |
| 20260509070504 | 60 | 0 | 0.0 | 0.0 | 0.00 | 0.31 | 0.00 | 88 | 1010.8 |
| 20260509070004 | 60 | 0 | 0.0 | 0.0 | 0.00 | 0.31 | 0.00 | 87 | 1010.8 |
| 20260509065504 | 60 | 116 | 0.0 | 1.7 | 0.00 | 0.31 | 0.00 | 87 | 1010.8 |
| 20260509065004 | 60 | 115 | 0.0 | 1.7 | 0.00 | 0.31 | 0.00 | 87 | 1010.7 |
| 20260509064504 | 60 | 111 | 0.0 | 1.7 | 0.00 | 0.31 | 0.00 | 87 | 1010.6 |
| 20260509064004 | 61 | 111 | 0.0 | 1.7 | 0.00 | 0.31 | 0.00 | 87 | 1010.6 |
| 20260509063504 | 61 | 0 | 0.0 | 0.0 | 0.00 | 0.31 | 0.00 | 87 | 1010.5 |
| 20260509063025 | 61 | 0 | 0.0 | 0.0 | 0.00 | 0.31 | 0.00 | 87 | 1010.7 |
| 20260509062504 | 61 | 0 | 0.0 | 0.0 | 0.00 | 0.31 | 0.00 | 87 | 1010.8 |
| 20260509062004 | 61 | 0 | 0.0 | 0.0 | 0.00 | 0.31 | 0.00 | 87 | 1010.9 |
| 20260509061504 | 61 | 0 | 0.0 | 0.0 | 0.00 | 0.31 | 0.00 | 87 | 1011.0 |
| 20260509061004 | 61 | 109 | 0.0 | 0.9 | 0.00 | 0.31 | 0.00 | 87 | 1011.0 |
| 20260509060504 | 62 | 109 | 0.0 | 0.9 | 0.00 | 0.31 | 0.00 | 87 | 1011.0 |
| 20260509060004 | 62 | 0 | 0.0 | 0.0 | 0.00 | 0.31 | 0.00 | 87 | 1011.0 |
| 20260509055504 | 62 | 108 | 0.0 | 1.7 | 0.00 | 0.31 | 0.00 | 87 | 1010.8 |
| 20260509055004 | 62 | 109 | 0.0 | 1.7 | 0.00 | 0.31 | 0.00 | 87 | 1010.7 |
| 20260509054504 | 62 | 110 | 0.9 | 2.6 | 0.00 | 0.31 | 0.00 | 87 | 1010.7 |
| 20260509054025 | 62 | 108 | 0.9 | 3.5 | 0.00 | 0.31 | 0.00 | 87 | 1010.7 |
| 20260509053525 | 62 | 106 | 1.7 | 3.5 | 0.00 | 0.31 | 0.00 | 87 | 1010.7 |
| 20260509053004 | 62 | 102 | 0.9 | 5.2 | 0.00 | 0.31 | 0.00 | 87 | 1010.6 |
| 20260509052504 | 62 | 102 | 0.9 | 5.2 | 0.00 | 0.31 | 0.00 | 87 | 1010.7 |
| 20260509052004 | 62 | 101 | 0.9 | 3.5 | 0.00 | 0.31 | 0.00 | 87 | 1010.8 |
| 20260509051525 | 62 | 99 | 0.0 | 6.1 | 0.00 | 0.31 | 0.00 | 87 | 1010.8 |
| 20260509051004 | 63 | 96 | 0.9 | 6.1 | 0.00 | 0.31 | 0.00 | 87 | 1010.8 |
| 20260509050504 | 63 | 98 | 2.6 | 7.0 | 0.00 | 0.31 | 0.00 | 87 | 1010.7 |
| 20260509050004 | 63 | 100 | 3.5 | 7.0 | 0.00 | 0.31 | 0.00 | 87 | 1010.8 |
| 20260509045504 | 63 | 102 | 2.6 | 7.0 | 0.00 | 0.31 | 0.31 | 87 | 1010.8 |